TimeCEST,TemperatureF,Dew PointF,Humidity,Sea Level PressureIn,VisibilityMPH,Wind Direction,Wind SpeedMPH,Gust SpeedMPH,PrecipitationIn,Events,Conditions,WindDirDegrees,DateUTC
12:00 AM,35.6,32.0,87,29.95,-9999.0,ESE,3.5,-,N/A,,Clear,120,2012-10-08 22:00:00
1:00 AM,35.6,33.8,93,29.92,-9999.0,East,3.5,-,N/A,,Clear,90,2012-10-08 23:00:00
3:00 AM,33.8,32.0,93,29.86,-9999.0,East,4.6,-,N/A,,Clear,100,2012-10-09 01:00:00
4:00 AM,35.6,32.0,87,29.83,-9999.0,ESE,2.3,-,N/A,,Clear,110,2012-10-09 02:00:00
5:00 AM,37.4,35.6,93,29.80,6.2,Variable,2.3,-,N/A,,Scattered Clouds,0,2012-10-09 03:00:00
6:00 AM,37.4,35.6,93,29.80,6.2,Variable,1.2,-,N/A,,Scattered Clouds,0,2012-10-09 04:00:00
7:00 AM,37.4,35.6,93,29.80,6.2,Calm,Calm,-,N/A,,Mostly Cloudy,0,2012-10-09 05:00:00
7:30 AM,39.2,37.4,93,29.80,6.2,Variable,2.3,-,N/A,,Mostly Cloudy,0,2012-10-09 05:30:00
8:00 AM,39.2,37.4,93,29.80,6.2,Calm,Calm,-,N/A,,Mostly Cloudy,0,2012-10-09 06:00:00
8:30 AM,41.0,37.4,87,29.80,6.2,Variable,2.3,-,N/A,,Mostly Cloudy,0,2012-10-09 06:30:00
9:00 AM,42.8,37.4,81,29.80,6.2,WSW,3.5,-,N/A,,Partly Cloudy,240,2012-10-09 07:00:00
9:30 AM,42.8,39.2,87,29.80,6.2,West,8.1,-,N/A,,Partly Cloudy,270,2012-10-09 07:30:00
9:45 AM,44.6,39.2,81,29.80,6.2,West,9.2,-,N/A,Rain,Light Rain,260,2012-10-09 07:45:00
10:00 AM,44.6,39.2,81,29.80,6.2,West,9.2,-,N/A,Rain,Light Rain,260,2012-10-09 08:00:00
10:30 AM,46.4,41.0,81,29.80,-9999.0,WSW,9.2,-,N/A,,Clear,250,2012-10-09 08:30:00
11:00 AM,46.4,41.0,81,29.80,-9999.0,WSW,10.4,-,N/A,,Clear,250,2012-10-09 09:00:00
11:30 AM,50.0,41.0,71,29.80,-9999.0,SW,9.2,-,N/A,,Clear,230,2012-10-09 09:30:00
12:00 PM,50.0,39.2,66,29.80,-9999.0,West,10.4,-,N/A,,Clear,260,2012-10-09 10:00:00
12:30 PM,51.8,41.0,67,29.83,-9999.0,West,9.2,-,N/A,,Clear,260,2012-10-09 10:30:00
1:00 PM,53.6,41.0,62,29.83,6.2,West,10.4,-,N/A,,Partly Cloudy,270,2012-10-09 11:00:00
1:30 PM,55.4,41.0,58,29.83,6.2,West,6.9,-,N/A,,Partly Cloudy,270,2012-10-09 11:30:00
2:00 PM,53.6,35.6,51,29.83,6.2,West,10.4,-,N/A,,Partly Cloudy,270,2012-10-09 12:00:00
2:30 PM,53.6,35.6,51,29.83,6.2,West,12.7,-,N/A,,Partly Cloudy,280,2012-10-09 12:30:00
3:00 PM,53.6,35.6,51,29.83,6.2,NW,12.7,-,N/A,,Partly Cloudy,310,2012-10-09 13:00:00
3:30 PM,53.6,32.0,44,29.83,6.2,WNW,12.7,-,N/A,,Partly Cloudy,300,2012-10-09 13:30:00
4:00 PM,50.0,35.6,58,29.86,6.2,WNW,15.0,-,N/A,,Partly Cloudy,300,2012-10-09 14:00:00
4:30 PM,50.0,33.8,54,29.86,6.2,WNW,12.7,-,N/A,,Partly Cloudy,290,2012-10-09 14:30:00
5:00 PM,50.0,33.8,54,29.86,6.2,WNW,12.7,-,N/A,,Partly Cloudy,290,2012-10-09 15:00:00
5:30 PM,50.0,35.6,58,29.86,6.2,WNW,13.8,-,N/A,,Partly Cloudy,300,2012-10-09 15:30:00
6:00 PM,48.2,35.6,62,29.89,6.2,WNW,11.5,-,N/A,,Partly Cloudy,300,2012-10-09 16:00:00
6:30 PM,46.4,33.8,62,29.89,6.2,WNW,12.7,-,N/A,,Partly Cloudy,290,2012-10-09 16:30:00
7:00 PM,44.6,33.8,66,29.92,6.2,NW,9.2,-,N/A,,Partly Cloudy,310,2012-10-09 17:00:00
7:30 PM,44.6,33.8,66,29.92,6.2,WNW,5.8,-,N/A,,Partly Cloudy,290,2012-10-09 17:30:00
8:00 PM,42.8,33.8,70,29.92,6.2,WSW,4.6,-,N/A,,Partly Cloudy,250,2012-10-09 18:00:00
8:30 PM,42.8,33.8,70,29.95,-9999.0,WNW,4.6,-,N/A,,Clear,290,2012-10-09 18:30:00
9:00 PM,41.0,33.8,76,29.95,-9999.0,West,4.6,-,N/A,,Clear,270,2012-10-09 19:00:00
9:30 PM,41.0,32.0,70,29.95,-9999.0,West,4.6,-,N/A,,Clear,270,2012-10-09 19:30:00
10:00 PM,41.0,32.0,70,29.95,-9999.0,WNW,3.5,-,N/A,,Clear,300,2012-10-09 20:00:00
11:00 PM,35.6,32.0,87,29.98,-9999.0,Calm,Calm,-,N/A,,Clear,0,2012-10-09 21:00:00